📊 Raw Sensor Data

Showing records 49426 to 49450 of 85,119 total

ID Distance (ft) Battery V Battery A Int Temp (°F) Int Humid (%) Ext Temp (°F) Solar V RSSI SNR Time Stamp
35706 -- 4.04 0 69 39 64 5.10 -81 9 03/22/2025 12:00 PM
35705 -- 4.03 5 71 37 64 5.10 -79 8 03/22/2025 11:45 AM
35704 -- 4.03 0 71 37 68 5.10 -81 8 03/22/2025 11:30 AM
35703 -- 4.15 0 69 37 68 5.10 -82 8 03/22/2025 11:15 AM
35702 -- 4.03 5 67 37 68 5.10 -82 8 03/22/2025 11:01 AM
35701 -- 4.09 5 66 37 65 5.10 -82 7 03/22/2025 10:45 AM
35700 -- 4.03 5 63 37 67 5.10 -82 9 03/22/2025 10:30 AM
35699 -- 4.03 0 60 38 58 5.10 -82 8 03/22/2025 10:15 AM
35698 15.4 4.03 5 60 37 58 5.10 -83 8 03/22/2025 10:00 AM
35697 15.3 4.03 0 58 37 58 5.10 -82 7 03/22/2025 09:45 AM
35696 -- 4.03 5 57 37 58 5.10 -82 8 03/22/2025 09:30 AM
35695 -- 4.10 29 55 37 58 4.50 -81 7 03/22/2025 09:15 AM
35694 -- 4.06 35 53 37 54 4.50 -82 8 03/22/2025 09:00 AM
35693 -- 4.03 14 51 37 52 4.50 -82 7 03/22/2025 08:45 AM
35692 -- 4.07 5 49 37 52 4.50 -82 8 03/22/2025 08:30 AM
35691 -- 4.01 -10 48 38 50 4.50 -82 8 03/22/2025 08:15 AM
35690 -- 3.98 5 46 38 48 4.50 -83 8 03/22/2025 08:00 AM
35689 -- 4.02 0 45 39 46 4.50 -83 8 03/22/2025 07:45 AM
35688 -- 3.95 -8 45 39 46 4.50 -82 8 03/22/2025 07:30 AM
35687 -- 3.95 -10 45 39 47 1.90 -81 8 03/22/2025 07:15 AM
35686 -- 3.96 -5 44 39 46 1.90 -82 7 03/22/2025 07:00 AM
35685 -- 3.96 -5 44 39 45 0.00 -81 7 03/22/2025 06:45 AM
35684 15.2 4.01 -5 44 39 46 0.00 -81 7 03/22/2025 06:30 AM
35683 -- 3.96 -5 44 39 47 0.00 -81 8 03/22/2025 06:15 AM
35682 -- 3.96 -5 43 39 46 0.10 -81 7 03/22/2025 06:00 AM